[[{"header":{"parameterUnit":"m.s-1","parameterCategory":2,"la1":30.2991,"la2":30.254,"lo1":-89.0895,"lo2":-89.0444,"dy":0.0017,"dx":0.0017,"nx":28,"ny":28,"refTime":"2023-11-16T09:00:00:Z","depth":"0","parameterNumber":2,"parameterNumberName":"U-component_of_CURRENTS"},"data":[0,0,0,0,0,0,0,0,0,0,0,0,0,0,0,0,0,0,0,0,0,0,0,0,0,0,0,0,0,0,0,0,0,0,0,0,0,0,0,0,0,0,0,0,0,0,0,0,0,0,0,0,0,0,0,0,0,0,0.3524,0.3524,0,0.3511,0.3511,0.3511,0.3493,0.3493,0.3493,0.3493,0.3474,0.3474,0.3474,0,0,0,0,0,0,0,0,0,0,0,0,0,0.3577,0.3576,0.3524,0.3524,0.3524,0.3511,0.3511,0.3511,0.3493,0.3493,0.3493,0.3492,0.3474,0.3474,0.3474,0,0,0,0,0,0,0,0,0,0,0,0,0,0.3558,0.3576,0.3524,0.3514,0.3513,0.3511,0.3511,0.3511,0.3493,0.3493,0.3493,0.3492,0.3474,0.3474,0.3474,0.3478,0,0,0.3472,0.3472,0,0,0,0,0,0,0,0,0.3559,0.3556,0.3516,0.3515,0.3514,0.3504,0.3523,0.35,0.3493,0.35,0.3493,0.3492,0.3484,0.3483,0.3481,0.3478,0.3477,0.3472,0.3472,0.3472,0.3472,0,0,0,0,0,0,0,0.356,0.3556,0.3519,0.3516,0.3514,0.3525,0.3522,0.3519,0.3494,0.35,0.3499,0.3498,0.3484,0.3481,0.348,0.3476,0.3472,0.3472,0.3472,0.3472,0.352,0.3521,0,0,0,0,0,0,0.3561,0.3557,0.3519,0.3518,0.3537,0.3525,0.352,0.3507,0.3494,0.3492,0.3498,0.3497,0.3482,0.3481,0.3479,0.3519,0.3472,0.3472,0.3471,0.3518,0.352,0.3522,0,0,0,0,0,0,0.3562,0.3557,0.3519,0.3539,0.3535,0.3524,0.3509,0.3507,0.3509,0.3493,0.3491,0.3503,0.3482,0.348,0.3498,0.3517,0.3471,0.3471,0.3517,0.3519,0.3521,0.3577,0,0,0,0,0,0,0.3563,0.3557,0.3556,0.3538,0.3534,0.3532,0.3509,0.3507,0.3509,0.3508,0.3496,0.3494,0.3481,0.3499,0.3498,0.3516,0.3471,0.3515,0.3518,0.352,0.3573,0.3581,0.3587,0,0,0,0,0,0.3565,0.3566,0.3556,0.3552,0.353,0.3533,0.3532,0.3523,0.351,0.3521,0.3519,0.3495,0.3516,0.35,0.3498,0.3516,0.3513,0.3517,0.352,0.357,0.3579,0.3587,0,0,0,0,0,0,0.3585,0.3563,0.3553,0.3545,0.3545,0.353,0.3537,0.3529,0.3534,0.3534,0.3514,0.3513,0.3539,0.3523,0.3506,0.3541,0.3511,0.3514,0.3549,0.3558,0.3565,0.3583,0.347,0,0,0,0,0,0.3589,0.3583,0.3569,0.3564,0.3565,0.3552,0.3553,0.3549,0.3547,0.3548,0.3541,0.3539,0.3551,0.355,0.3558,0.3572,0.3571,0.3584,0.3591,0.3597,0.3613,0.3653,0.3665,0.3533,0.3533,0.3533,0,0,0.3595,0.3582,0.3578,0.3569,0.3563,0.3575,0.3552,0.3559,0.3577,0.3546,0.357,0.3568,0.3564,0.3589,0.3597,0.3575,0.3628,0.3601,0.3606,0.3619,0.3658,0.3671,0.3682,0.3535,0.3535,0.3535,0,0,0.3607,0.3591,0.3596,0.36,0.3601,0.3598,0.3603,0.3598,0.3607,0.3628,0.3619,0.3635,0.3635,0.3645,0.3647,0.3699,0.3673,0.3694,0.3734,0.3773,0.3784,0.3794,0.3782,0.3791,0.3688,0.3688,0.3688,0,0.3615,0.361,0.3601,0.3612,0.3617,0.361,0.3624,0.3641,0.3647,0.3662,0.3645,0.3673,0.3666,0.3706,0.3725,0.3715,0.3718,0.3698,0.3783,0.3793,0.3802,0.3787,0.3796,0.3691,0.369,0.369,0.369,0,0.3639,0.3635,0.364,0.3646,0.3659,0.3668,0.3687,0.3708,0.3709,0.372,0.3761,0.376,0.3774,0.3774,0.3764,0.3826,0.3798,0.3794,0.376,0.3819,0.3799,0.3807,0.3695,0.3694,0.3693,0.3692,0,0,0.3634,0.3651,0.3649,0.3657,0.3674,0.3685,0.3728,0.376,0.3791,0.3807,0.3846,0.387,0.3867,0.3872,0.3863,0.3892,0.3946,0.3873,0.3874,0.3858,0.4003,0.3892,0.389,0.3962,0.3964,0.3966,0.3952,0,0.3646,0.367,0.3676,0.3701,0.3713,0.3729,0.3768,0.3806,0.3832,0.3876,0.3895,0.3929,0.3907,0.3913,0.3947,0.3959,0.3975,0.3948,0.3951,0.395,0.3844,0.3899,0.376,0.3729,0.3959,0.3961,0.3961,0,0.3656,0.367,0.3694,0.3722,0.373,0.3751,0.3803,0.3841,0.391,0.3934,0.3976,0.3992,0.4044,0.4015,0.4064,0.405,0.4036,0.4033,0.4032,0.3921,0.3857,0.3714,0.3735,0.3686,0.3974,0.3973,0.3972,0,0.3648,0.3675,0.3691,0.3702,0.3743,0.3761,0.379,0.3853,0.389,0.3976,0.4005,0.4068,0.4091,0.4119,0.4113,0.4099,0.4156,0.4128,0.4007,0.3997,0.3875,0.3849,0.3848,0.4165,0.4165,0.4165,0.4165,0,0.3644,0.365,0.3688,0.3697,0.3723,0.3762,0.38,0.3847,0.3918,0.3963,0.4032,0.4077,0.4126,0.4157,0.4147,0.4101,0.4181,0.4027,0.4002,0.3884,0.3862,0.3808,0.3767,0.4165,0.4165,0.4165,0.4165,0,0.3613,0.3636,0.3655,0.3702,0.3712,0.3734,0.3783,0.3821,0.3897,0.396,0.399,0.4092,0.4132,0.415,0.4184,0.4117,0.3982,0.4059,0.389,0.3845,0.3648,0.3613,0.3422,0.3321,0.391,0.3907,0.3905,0,0.359,0.3602,0.3646,0.3652,0.3663,0.3696,0.3719,0.3797,0.3832,0.3961,0.3987,0.4064,0.4106,0.4105,0.4023,0.3965,0.3885,0.3768,0.3714,0.3628,0.3573,0.3447,0.3368,0.3563,0.3558,0.3554,0.3551,0,0.3558,0.3578,0.3603,0.3611,0.3627,0.365,0.3686,0.3709,0.3805,0.3852,0.3939,0.3997,0.4006,0.3895,0.3806,0.3753,0.3591,0.368,0.366,0.3358,0.3153,0.3046,0.3556,0.3516,0.3519,0.3522,0.3524,0.3525,0.3531,0.3538,0.3569,0.356,0.3575,0.3584,0.3554,0.3603,0.3633,0.364,0.3798,0.378,0.3757,0.3622,0.3562,0.3347,0.3324,0.3221,0.32,0.3092,0.2948,0.335,0.3242,0.3244,0.3246,0.3247,0.3248,0,0.3486,0.3503,0.3509,0.3491,0.3449,0.3492,0.3503,0.3435,0.3398,0.346,0.3476,0.34,0.3297,0.3256,0.3077,0.2924,0.2799,0.2826,0.2664,0.2623,0.3057,0.3002,0.2752,0.2752,0.2752,0.2752,0.2752,0.2753,0.3472,0.346,0.3454,0.336,0.3328,0.3227,0.3199,0.3127,0.3117,0.2991,0.2905,0.2907,0.2976,0.29,0.2748,0.2668,0.2495,0.2315,0.2336,0.2718,0.2755,0.2791,0.2735,0.2433,0.2433,0.1817,0.1813,0.1809]},{"header":{"parameterUnit":"m.s-1","parameterCategory":2,"la1":30.2991,"la2":30.254,"lo1":-89.0895,"lo2":-89.0444,"dy":0.0017,"dx":0.0017,"nx":28,"ny":28,"refTime":"2023-11-16T09:00:00:Z","depth":"0","parameterNumber":3,"parameterNumberName":"V-component_of_CURRENTS"},"data":[0,0,0,0,0,0,0,0,0,0,0,0,0,0,0,0,0,0,0,0,0,0,0,0,0,0,0,0,0,0,0,0,0,0,0,0,0,0,0,0,0,0,0,0,0,0,0,0,0,0,0,0,0,0,0,0,0,0,-0.0079,-0.0079,0,-0.0096,-0.0096,-0.0096,-0.0114,-0.0114,-0.0114,-0.0114,-0.0173,-0.0174,-0.0176,0,0,0,0,0,0,0,0,0,0,0,0,0,-0.0096,-0.0096,-0.0079,-0.0079,-0.0079,-0.0096,-0.0096,-0.0097,-0.0114,-0.0114,-0.0114,-0.0114,-0.0172,-0.0174,-0.0176,0,0,0,0,0,0,0,0,0,0,0,0,0,-0.0101,-0.0096,-0.0079,-0.0088,-0.0089,-0.0096,-0.0096,-0.0097,-0.0114,-0.0114,-0.0114,-0.0114,-0.0171,-0.0174,-0.0176,-0.019,0,0,-0.0183,-0.0184,0,0,0,0,0,0,0,0,-0.0101,-0.01,-0.0086,-0.0087,-0.0088,-0.0101,-0.0124,-0.0129,-0.0114,-0.0107,-0.0114,-0.0114,-0.0151,-0.0155,-0.0161,-0.0192,-0.0195,-0.0183,-0.0185,-0.0186,-0.0186,0,0,0,0,0,0,0,-0.01,-0.01,-0.0088,-0.0086,-0.0087,-0.0103,-0.0103,-0.0125,-0.0131,-0.0108,-0.0108,-0.0106,-0.0152,-0.0158,-0.0162,-0.0196,-0.0183,-0.0185,-0.0187,-0.0187,-0.0242,-0.0242,0,0,0,0,0,0,-0.0091,-0.0099,-0.0087,-0.0088,-0.0092,-0.0102,-0.0103,-0.0099,-0.013,-0.0134,-0.0106,-0.0107,-0.0155,-0.016,-0.0164,-0.0169,-0.0186,-0.0188,-0.0189,-0.0242,-0.0242,-0.0242,0,0,0,0,0,0,-0.0091,-0.009,-0.0087,-0.0093,-0.0093,-0.0101,-0.0097,-0.0099,-0.0103,-0.0128,-0.0133,-0.0107,-0.0155,-0.0161,-0.0183,-0.0172,-0.0189,-0.0191,-0.0242,-0.0242,-0.0242,-0.0186,0,0,0,0,0,0,-0.0092,-0.009,-0.009,-0.0092,-0.0092,-0.0087,-0.0096,-0.0099,-0.01,-0.0102,-0.0131,-0.0136,-0.0155,-0.0179,-0.0185,-0.0175,-0.0193,-0.0242,-0.0242,-0.0242,-0.0188,-0.0185,-0.0182,0,0,0,0,0,-0.0092,-0.0089,-0.009,-0.0089,-0.009,-0.0087,-0.0089,-0.0097,-0.01,-0.0101,-0.0122,-0.0135,-0.0184,-0.0181,-0.0188,-0.0178,-0.0242,-0.0242,-0.0242,-0.019,-0.0185,-0.0182,0,0,0,0,0,0,-0.01,-0.009,-0.0092,-0.0087,-0.0085,-0.0089,-0.0088,-0.0093,-0.011,-0.0111,-0.0138,-0.0145,-0.0158,-0.0181,-0.0177,-0.0196,-0.0215,-0.0216,-0.0172,-0.0169,-0.0165,-0.0144,-0.0195,0,0,0,0,0,-0.01,-0.0092,-0.0088,-0.0084,-0.008,-0.0084,-0.0085,-0.0087,-0.0097,-0.0104,-0.0124,-0.0147,-0.0165,-0.0176,-0.0197,-0.021,-0.0221,-0.021,-0.0206,-0.0203,-0.0192,-0.0208,-0.0204,-0.0243,-0.0243,-0.0243,0,0,-0.0104,-0.0094,-0.0093,-0.0084,-0.0082,-0.007,-0.0085,-0.0078,-0.007,-0.0109,-0.011,-0.0136,-0.0166,-0.0177,-0.0185,-0.0194,-0.0196,-0.0203,-0.02,-0.019,-0.0208,-0.0204,-0.02,-0.0243,-0.0243,-0.0243,0,0,-0.0092,-0.0094,-0.0079,-0.0073,-0.0062,-0.0062,-0.0057,-0.0058,-0.006,-0.0069,-0.009,-0.0108,-0.0141,-0.0154,-0.0167,-0.016,-0.0177,-0.017,-0.0135,-0.0151,-0.0148,-0.0145,-0.0141,-0.0138,-0.0169,-0.0169,-0.0169,0,-0.0097,-0.0071,-0.0076,-0.0055,-0.0042,-0.0054,-0.003,-0.0037,-0.0047,-0.0042,-0.0064,-0.0097,-0.0127,-0.0129,-0.0128,-0.015,-0.0157,-0.0145,-0.0145,-0.0142,-0.014,-0.0137,-0.0135,-0.0166,-0.0166,-0.0167,-0.0167,0,-0.0069,-0.0049,-0.0037,-0.0012,-0.0005,0.0014,0.0013,0.0015,0.0007,0.0002,-0.0005,-0.0047,-0.0064,-0.0079,-0.0104,-0.01,-0.0108,-0.0136,-0.0149,-0.0133,-0.0131,-0.0129,-0.0162,-0.0163,-0.0164,-0.0165,0,0,-0.0061,-0.0025,-0.0016,0.0009,0.0025,0.0039,0.0053,0.007,0.0092,0.006,0.0082,0.0035,0.0015,-0.0002,-0.0034,-0.0052,-0.0047,-0.0085,-0.0087,-0.0069,-0.0065,-0.0073,-0.0073,-0.0076,-0.0076,-0.0076,-0.0065,0,-0.0029,0.0022,0.0031,0.0079,0.0107,0.0107,0.0126,0.0134,0.0132,0.0145,0.0103,0.0104,0.0044,0.0042,0.0012,-0.0024,-0.0042,-0.0046,-0.0093,-0.0094,-0.0095,-0.0071,-0.0036,-0.0024,-0.0063,-0.0063,-0.0063,0,0.0007,0.0041,0.0096,0.0144,0.0157,0.018,0.0224,0.0239,0.0245,0.0242,0.0227,0.0197,0.0175,0.0114,0.0057,0.0058,0.0001,-0.0037,-0.0039,-0.0063,-0.01,-0.0052,-0.002,-0.0128,-0.0061,-0.0061,-0.0061,0,0.0034,0.009,0.014,0.0155,0.02,0.0229,0.0253,0.0274,0.0307,0.0313,0.0339,0.0289,0.0285,0.0203,0.0119,0.0089,0.006,0.0006,-0.0054,-0.0054,-0.0042,-0.0042,-0.0111,-0.0042,-0.0042,-0.0042,-0.0042,0,0.0074,0.0118,0.0161,0.019,0.026,0.0271,0.0343,0.0356,0.0392,0.0461,0.0396,0.0445,0.0305,0.027,0.0165,0.008,0.0094,-0.0033,-0.0051,-0.0022,-0.002,-0.0129,-0.0221,-0.0041,-0.0041,-0.0041,-0.0041,0,0.0104,0.0131,0.0192,0.025,0.0277,0.0326,0.0408,0.0459,0.0485,0.0575,0.0586,0.0567,0.0537,0.0403,0.0292,0.016,-0.0,0.0025,0.008,0.0067,-0.0115,-0.0205,-0.0308,-0.0372,-0.0043,-0.0043,-0.0043,0,0.0127,0.0159,0.0236,0.0288,0.0325,0.04,0.0461,0.0502,0.0574,0.0677,0.0736,0.0727,0.077,0.0597,0.037,0.0193,0.004,0.0061,-0.0008,-0.0107,-0.0221,-0.0286,-0.0338,0.0039,0.004,0.004,0.004,0,0.0167,0.019,0.0244,0.0346,0.0423,0.051,0.0608,0.0681,0.0763,0.0871,0.1019,0.1069,0.091,0.0763,0.0474,0.032,-0.0026,0.0063,-0.0054,-0.0172,-0.0232,-0.0307,0.0021,0.0045,0.0044,0.0044,0.0044,0.0043,0.0198,0.0241,0.0311,0.0413,0.0507,0.063,0.0724,0.0855,0.1014,0.1213,0.1247,0.139,0.1109,0.074,0.0493,0.0051,0.0011,-0.0082,-0.0182,-0.0235,-0.031,0.0034,0.0035,0.0035,0.0034,0.0034,0.0034,0,0.024,0.029,0.0378,0.0507,0.0628,0.0663,0.0833,0.0956,0.1186,0.1398,0.1566,0.1564,0.1212,0.0795,0.0187,-0.0127,-0.0261,-0.0298,-0.038,-0.0424,-0.0112,-0.0121,-0.0135,-0.0135,-0.0135,-0.0135,-0.0135,-0.0134,0.0265,0.0347,0.0391,0.0588,0.0694,0.0857,0.0964,0.1168,0.1357,0.1664,0.1813,0.1887,0.1596,0.0527,-0.0198,-0.0386,-0.0599,-0.0633,-0.0767,-0.0551,-0.0538,-0.0525,-0.0553,-0.0657,-0.0658,-0.101,-0.1014,-0.1016]}],[{"header":{"parameterUnit":"m.s-1","parameterCategory":2,"la1":30.2991,"la2":30.254,"lo1":-89.0895,"lo2":-89.0444,"dy":0.0017,"dx":0.0017,"nx":28,"ny":28,"refTime":"2023-11-16T09:00:00:Z","depth":"2","parameterNumber":2,"parameterNumberName":"U-component_of_CURRENTS"},"data":[0,0,0,0,0,0,0,0,0,0,0,0,0,0,0,0,0,0,0,0,0,0,0,0,0,0,0,0,0,0,0,0,0,0,0,0,0,0,0,0,0,0,0,0,0,0,0,0,0,0,0,0,0,0,0,0,0,0,0.2428,0.2429,0,0.2446,0.2446,0.2446,0.2441,0.2441,0.2441,0.2441,0.2442,0.2442,0.2442,0,0,0,0,0,0,0,0,0,0,0,0,0,0.239,0.2391,0.2428,0.2429,0.243,0.2447,0.2446,0.2446,0.2441,0.2441,0.2441,0.2441,0.2442,0.2442,0.2442,0,0,0,0,0,0,0,0,0,0,0,0,0,0.2402,0.2391,0.2428,0.2433,0.2434,0.2447,0.2446,0.2446,0.2441,0.2441,0.2441,0.2441,0.2442,0.2442,0.2442,0.2435,0,0,0.2441,0.2441,0,0,0,0,0,0,0,0,0.2401,0.2402,0.2432,0.2433,0.2434,0.2447,0.2434,0.2443,0.244,0.2432,0.2441,0.2441,0.2446,0.2445,0.244,0.2435,0.2435,0.2441,0.2441,0.2441,0.2441,0,0,0,0,0,0,0,0.24,0.2402,0.2429,0.2433,0.2434,0.2436,0.2437,0.2435,0.2432,0.2433,0.2434,0.2445,0.2445,0.244,0.244,0.2435,0.2441,0.2441,0.2441,0.244,0.2507,0.2508,0,0,0,0,0,0,0.241,0.2401,0.2429,0.243,0.2425,0.2437,0.2438,0.2438,0.2433,0.2434,0.2445,0.2445,0.244,0.244,0.244,0.2486,0.2441,0.244,0.244,0.2505,0.2507,0.2509,0,0,0,0,0,0,0.2409,0.2412,0.2428,0.2422,0.2425,0.2438,0.2437,0.2438,0.2452,0.2443,0.2443,0.2462,0.244,0.244,0.2468,0.2484,0.244,0.244,0.2502,0.2505,0.2508,0.2544,0,0,0,0,0,0,0.2407,0.2411,0.2422,0.2422,0.2426,0.2441,0.2438,0.2438,0.2461,0.2461,0.2457,0.2456,0.244,0.2469,0.2468,0.2483,0.244,0.25,0.2504,0.2507,0.254,0.2547,0.2554,0,0,0,0,0,0.2405,0.2414,0.2422,0.2426,0.2437,0.2442,0.2444,0.245,0.2462,0.2464,0.2481,0.2457,0.2491,0.247,0.2469,0.2484,0.2498,0.2503,0.2507,0.2537,0.2546,0.2553,0,0,0,0,0,0,0.2409,0.2415,0.2423,0.2436,0.2445,0.2444,0.2452,0.2464,0.2478,0.2486,0.2478,0.2479,0.2506,0.2501,0.2479,0.2518,0.2492,0.2496,0.2515,0.2523,0.253,0.2544,0.244,0,0,0,0,0,0.2416,0.2414,0.243,0.2438,0.2445,0.2454,0.2464,0.2471,0.2483,0.2489,0.2489,0.2502,0.2519,0.2527,0.2531,0.2552,0.2559,0.2565,0.2572,0.2577,0.2591,0.2624,0.2634,0.2523,0.2523,0.2523,0,0,0.2415,0.2423,0.2421,0.2438,0.2442,0.246,0.2458,0.2474,0.25,0.2487,0.2517,0.2521,0.2532,0.2555,0.2567,0.2554,0.2613,0.2583,0.2587,0.2598,0.2629,0.264,0.265,0.2526,0.2525,0.2525,0,0,0.2419,0.2424,0.2431,0.2441,0.2464,0.2472,0.2485,0.2497,0.2513,0.255,0.255,0.2577,0.2593,0.2603,0.2615,0.2667,0.2646,0.2663,0.2706,0.2738,0.2747,0.2755,0.2773,0.2782,0.2668,0.2668,0.2668,0,0.2425,0.2432,0.2435,0.2453,0.2465,0.2483,0.2503,0.2524,0.2548,0.2567,0.257,0.2619,0.2623,0.2665,0.2685,0.268,0.269,0.2668,0.2745,0.2753,0.2761,0.2777,0.2787,0.267,0.267,0.2669,0.2669,0,0.2442,0.2448,0.2451,0.2475,0.2495,0.2503,0.2541,0.2565,0.2595,0.2617,0.2667,0.2683,0.2717,0.2719,0.2722,0.2775,0.276,0.2745,0.2718,0.2774,0.2788,0.2798,0.2673,0.2672,0.2672,0.2671,0,0,0.2424,0.2457,0.2451,0.2468,0.2502,0.2517,0.2567,0.2608,0.2651,0.2684,0.2735,0.2777,0.2789,0.2805,0.2805,0.2833,0.2894,0.2817,0.2818,0.2826,0.2957,0.289,0.2894,0.2886,0.2888,0.289,0.2944,0,0.2427,0.246,0.2474,0.2501,0.2521,0.2549,0.2594,0.2643,0.2689,0.2741,0.278,0.2823,0.2822,0.2842,0.2878,0.2889,0.2922,0.288,0.2912,0.2913,0.2839,0.2904,0.2666,0.2689,0.2953,0.2954,0.2955,0,0.243,0.245,0.2476,0.2519,0.253,0.2554,0.2621,0.2667,0.2747,0.2787,0.2847,0.2875,0.2936,0.2922,0.2993,0.2965,0.2977,0.298,0.2981,0.2915,0.2865,0.2679,0.2696,0.2971,0.297,0.2969,0.2968,0,0.2407,0.2444,0.2462,0.2473,0.2531,0.2553,0.2594,0.2675,0.2726,0.2814,0.2864,0.2933,0.2982,0.3013,0.3048,0.3023,0.3113,0.3075,0.3025,0.302,0.2823,0.2797,0.313,0.313,0.3129,0.3129,0.3129,0,0.2387,0.2392,0.2453,0.2451,0.2496,0.2546,0.2602,0.266,0.2749,0.2807,0.2885,0.2943,0.3011,0.307,0.3077,0.3093,0.3146,0.3052,0.3038,0.2829,0.2804,0.305,0.304,0.3131,0.3131,0.313,0.313,0,0.2338,0.2367,0.2394,0.2455,0.2479,0.2513,0.2602,0.2638,0.274,0.2821,0.2851,0.2972,0.3043,0.3101,0.3157,0.313,0.3141,0.313,0.2878,0.2834,0.3014,0.3005,0.3072,0.307,0.3069,0.3068,0.3067,0,0.231,0.2325,0.2392,0.2403,0.2419,0.248,0.251,0.2618,0.2657,0.2824,0.2844,0.2968,0.302,0.3096,0.3071,0.3075,0.3135,0.2843,0.2753,0.3032,0.3013,0.3007,0.3001,0.2504,0.2499,0.2494,0.249,0,0.226,0.2287,0.2297,0.2347,0.237,0.2413,0.2467,0.2503,0.2621,0.2691,0.2775,0.2838,0.2937,0.2837,0.2869,0.2832,0.282,0.275,0.3118,0.2559,0.2502,0.2481,0.2493,0.245,0.2454,0.2457,0.2459,0.2461,0.2211,0.2219,0.2245,0.2274,0.2305,0.232,0.2309,0.2362,0.2412,0.2478,0.2615,0.2625,0.2664,0.2587,0.2507,0.2443,0.2633,0.2491,0.2502,0.252,0.2448,0.2392,0.2305,0.2308,0.2311,0.2313,0.2315,0,0.2158,0.2165,0.2177,0.2184,0.216,0.2231,0.2248,0.2198,0.2186,0.2285,0.2332,0.2174,0.2127,0.217,0.2015,0.2007,0.1964,0.1912,0.1832,0.1875,0.1913,0.1807,0.1496,0.1493,0.1491,0.1488,0,0,0.2125,0.2092,0.2093,0.2027,0.2038,0.1972,0.1957,0.1911,0.1928,0.1896,0.1889,0.2057,0.2125,0.1794,0.1743,0.1592,0.1717,0.1525,0.2189,0.2139,0.2173,0.226,0.2148,0,0,0,0,0]},{"header":{"parameterUnit":"m.s-1","parameterCategory":2,"la1":30.2991,"la2":30.254,"lo1":-89.0895,"lo2":-89.0444,"dy":0.0017,"dx":0.0017,"nx":28,"ny":28,"refTime":"2023-11-16T09:00:00:Z","depth":"2","parameterNumber":3,"parameterNumberName":"V-component_of_CURRENTS"},"data":[0,0,0,0,0,0,0,0,0,0,0,0,0,0,0,0,0,0,0,0,0,0,0,0,0,0,0,0,0,0,0,0,0,0,0,0,0,0,0,0,0,0,0,0,0,0,0,0,0,0,0,0,0,0,0,0,0,0,0.0273,0.0272,0,0.0241,0.0241,0.0241,0.0214,0.0214,0.0214,0.0214,0.0161,0.016,0.0159,0,0,0,0,0,0,0,0,0,0,0,0,0,0.027,0.027,0.0273,0.0272,0.0272,0.0242,0.0241,0.0241,0.0215,0.0214,0.0214,0.0214,0.0162,0.016,0.0159,0,0,0,0,0,0,0,0,0,0,0,0,0,0.0258,0.027,0.0273,0.0255,0.0253,0.0242,0.0241,0.0241,0.0215,0.0214,0.0214,0.0213,0.0162,0.0161,0.0159,0.0157,0,0,0.0154,0.0153,0,0,0,0,0,0,0,0,0.0259,0.0258,0.0258,0.0256,0.0254,0.0231,0.0221,0.0212,0.0215,0.0229,0.0214,0.0213,0.0183,0.018,0.0175,0.0154,0.0152,0.0154,0.0153,0.0152,0.0151,0,0,0,0,0,0,0,0.026,0.0259,0.026,0.0258,0.0255,0.0235,0.0234,0.0219,0.0209,0.0228,0.0226,0.0223,0.0182,0.0177,0.0174,0.0151,0.0154,0.0152,0.0151,0.015,0.0122,0.0122,0,0,0,0,0,0,0.0266,0.026,0.0261,0.0259,0.0256,0.0236,0.0234,0.0239,0.0209,0.0204,0.0223,0.0222,0.018,0.0176,0.0172,0.0176,0.0152,0.015,0.0149,0.0122,0.0122,0.0122,0,0,0,0,0,0,0.0267,0.0267,0.0262,0.0258,0.0256,0.0237,0.0243,0.0239,0.0234,0.0206,0.02,0.0222,0.0179,0.0174,0.0163,0.0174,0.0149,0.0148,0.0121,0.0122,0.0122,0.018,0,0,0,0,0,0,0.0267,0.0268,0.0273,0.0259,0.0257,0.0264,0.0243,0.0238,0.0233,0.0231,0.0203,0.0198,0.0179,0.0166,0.0161,0.0171,0.0147,0.0121,0.0122,0.0122,0.0178,0.0182,0.0186,0,0,0,0,0,0.0267,0.028,0.0274,0.0273,0.0265,0.0264,0.0262,0.0245,0.0233,0.0238,0.0217,0.0199,0.0165,0.0165,0.0159,0.0169,0.0121,0.0121,0.0122,0.0176,0.0181,0.0186,0,0,0,0,0,0,0.0277,0.0278,0.0271,0.0282,0.0276,0.026,0.0261,0.0249,0.0237,0.0231,0.0204,0.0198,0.0191,0.0171,0.0171,0.0161,0.0139,0.0139,0.0182,0.0187,0.0191,0.0208,0.0145,0,0,0,0,0,0.0283,0.0296,0.0288,0.0296,0.0295,0.0278,0.0275,0.0264,0.0251,0.0245,0.0226,0.0204,0.0189,0.0182,0.0164,0.0161,0.0137,0.0162,0.0167,0.017,0.018,0.0152,0.0155,0.0124,0.0124,0.0124,0,0,0.0289,0.029,0.0297,0.0299,0.0292,0.0302,0.0276,0.0275,0.0283,0.0241,0.0244,0.0218,0.0191,0.0187,0.0183,0.0173,0.0165,0.0171,0.0175,0.0182,0.0153,0.0156,0.0158,0.0125,0.0125,0.0125,0,0,0.0311,0.0309,0.0328,0.0329,0.0325,0.0317,0.032,0.0307,0.0302,0.0301,0.0272,0.0254,0.0234,0.0217,0.0207,0.0223,0.0187,0.0214,0.0251,0.0224,0.0227,0.0229,0.0198,0.0197,0.0218,0.0218,0.0218,0,0.0315,0.0341,0.0332,0.0349,0.0357,0.0329,0.0351,0.0344,0.0328,0.033,0.031,0.0278,0.0251,0.0249,0.0252,0.0235,0.021,0.0237,0.0231,0.0232,0.0233,0.0201,0.0199,0.0221,0.022,0.022,0.022,0,0.0353,0.0372,0.0383,0.0402,0.0408,0.042,0.0412,0.0413,0.04,0.039,0.0382,0.0341,0.0323,0.0309,0.0286,0.0281,0.0258,0.0239,0.0221,0.024,0.0204,0.0201,0.0225,0.0224,0.0223,0.0222,0,0,0.0375,0.0406,0.0412,0.0435,0.0439,0.0452,0.0466,0.0477,0.0494,0.0462,0.0479,0.0439,0.0408,0.0393,0.0354,0.0329,0.0307,0.0291,0.0288,0.0267,0.0243,0.0224,0.0218,0.0286,0.0286,0.0285,0.0215,0,0.041,0.0462,0.0466,0.0515,0.0542,0.0531,0.0553,0.0555,0.0547,0.0552,0.0504,0.0498,0.0443,0.0432,0.0398,0.0335,0.0302,0.0328,0.0223,0.022,0.0206,0.0215,0.0234,0.0173,0.0212,0.0211,0.0211,0,0.0451,0.0484,0.0542,0.0587,0.0598,0.0621,0.0656,0.0672,0.0666,0.0657,0.0631,0.0588,0.0546,0.0494,0.0394,0.0412,0.0334,0.0278,0.0273,0.0235,0.0196,0.016,0.0165,0.0205,0.0205,0.0205,0.0206,0,0.0488,0.0539,0.0592,0.0607,0.0649,0.0675,0.0695,0.0706,0.0736,0.0721,0.0734,0.0664,0.0642,0.0537,0.0413,0.0402,0.0299,0.0268,0.0175,0.0172,0.0159,0.0155,0.0194,0.0194,0.0194,0.0195,0.0195,0,0.0532,0.0575,0.0616,0.0649,0.0717,0.0725,0.0792,0.0798,0.0819,0.0868,0.079,0.0804,0.0652,0.0571,0.0442,0.0304,0.0317,0.0186,0.0156,0.0178,0.0178,0.0182,0.0182,0.0192,0.0193,0.0193,0.0194,0,0.057,0.0595,0.0661,0.0717,0.074,0.079,0.0862,0.0909,0.0915,0.0975,0.0974,0.0911,0.0807,0.0646,0.048,0.0356,0.0216,0.0159,0.0193,0.0168,0.0097,0.01,0.005,0.0049,0.0048,0.0047,0.0046,0,0.0594,0.0633,0.0714,0.0761,0.0792,0.0865,0.0922,0.0955,0.1012,0.1049,0.1085,0.1002,0.0962,0.0704,0.0471,0.0241,0.0209,0.01,0.0082,0.0108,0.0083,0.0088,0.0093,0.008,0.008,0.008,0.0079,0,0.0644,0.0671,0.0729,0.0823,0.0894,0.0982,0.1065,0.1125,0.1177,0.1222,0.1263,0.1231,0.0995,0.0764,0.0446,0.0292,0.0137,0.0086,0.0107,0.0119,0.0132,0.011,0.0114,0.0077,0.0077,0.0077,0.0077,0.0077,0.0681,0.0727,0.0802,0.0892,0.0977,0.1089,0.1167,0.1255,0.1354,0.1422,0.1391,0.1339,0.1083,0.0673,0.0402,0.0113,0.0131,0.0022,0.0025,0.0028,0.0048,0.006,-0.0006,-0.0006,-0.0006,-0.0006,-0.0006,0,0.0726,0.078,0.0865,0.0977,0.1071,0.1113,0.1256,0.1332,0.145,0.1496,0.1515,0.1264,0.1006,0.0703,0.028,0.0034,0.0018,-0.0053,-0.0017,-0.0012,-0.0008,0.0011,-0.0053,-0.0054,-0.0055,-0.0056,0,0,0.0752,0.0838,0.088,0.1035,0.1114,0.1249,0.1334,0.144,0.1503,0.1543,0.1502,0.1438,0.1085,0.0767,0.0433,0.0186,0.0143,0.0137,0.0203,0.029,0.0297,0.0064,0.0104,0,0,0,0,0]}],[{"header":{"parameterUnit":"m.s-1","parameterCategory":2,"la1":30.2991,"la2":30.254,"lo1":-89.0895,"lo2":-89.0444,"dy":0.0017,"dx":0.0017,"nx":28,"ny":28,"refTime":"2023-11-16T09:00:00:Z","depth":"4","parameterNumber":2,"parameterNumberName":"U-component_of_CURRENTS"},"data":[0,0,0,0,0,0,0,0,0,0,0,0,0,0,0,0,0,0,0,0,0,0,0,0,0,0,0,0,0,0,0,0,0,0,0,0,0,0,0,0,0,0,0,0,0,0,0,0,0,0,0,0,0,0,0,0,0,0,0.1416,0.1417,0,0.1468,0.1468,0.1469,0.1511,0.1511,0.1512,0.1513,0.1576,0.1577,0.1578,0,0,0,0,0,0,0,0,0,0,0,0,0,0.1363,0.1363,0.1416,0.1417,0.1418,0.1468,0.1468,0.1469,0.1511,0.1511,0.1512,0.1513,0.1576,0.1577,0.1578,0,0,0,0,0,0,0,0,0,0,0,0,0,0.1395,0.1363,0.1416,0.1447,0.145,0.1468,0.1468,0.1469,0.151,0.1511,0.1512,0.1513,0.1575,0.1577,0.1578,0.1569,0,0,0.1583,0.1584,0,0,0,0,0,0,0,0,0.1393,0.1397,0.1441,0.1445,0.1448,0.1486,0.1473,0.1504,0.151,0.1485,0.1513,0.1514,0.1548,0.1552,0.1556,0.1571,0.1574,0.1583,0.1584,0.1585,0.1586,0,0,0,0,0,0,0,0.1391,0.1395,0.1434,0.1442,0.1447,0.1461,0.1466,0.1479,0.1508,0.1487,0.1491,0.15,0.155,0.1554,0.1558,0.1575,0.1583,0.1585,0.1586,0.1586,0.1687,0.1689,0,0,0,0,0,0,0.1388,0.1392,0.1433,0.1436,0.1425,0.1461,0.1467,0.1471,0.1508,0.1516,0.1499,0.1502,0.1551,0.1556,0.156,0.164,0.1585,0.1587,0.1588,0.1685,0.1687,0.1689,0,0,0,0,0,0,0.1386,0.1391,0.1431,0.1418,0.1424,0.1461,0.1465,0.1472,0.1511,0.1518,0.1525,0.1536,0.1552,0.1558,0.16,0.1639,0.1587,0.1589,0.1683,0.1686,0.1688,0.1742,0,0,0,0,0,0,0.1384,0.1389,0.1407,0.1417,0.1425,0.1459,0.1465,0.1472,0.1514,0.1519,0.1551,0.1556,0.1553,0.1598,0.1602,0.164,0.159,0.1681,0.1684,0.1687,0.1738,0.1746,0.1753,0,0,0,0,0,0.1382,0.1393,0.1407,0.1413,0.1442,0.146,0.1465,0.1493,0.1515,0.1532,0.156,0.1557,0.1622,0.16,0.1605,0.1645,0.168,0.1684,0.1687,0.1735,0.1744,0.1752,0,0,0,0,0,0,0.138,0.1399,0.1414,0.1432,0.1456,0.1469,0.1494,0.1513,0.1548,0.1566,0.1573,0.1579,0.1633,0.1631,0.1608,0.1684,0.1653,0.1657,0.1687,0.1696,0.1704,0.1709,0.1591,0,0,0,0,0,0.1387,0.1403,0.1422,0.1442,0.1456,0.1483,0.1503,0.1522,0.1547,0.1566,0.1587,0.1616,0.1646,0.1666,0.1685,0.1722,0.1726,0.1753,0.176,0.1767,0.1776,0.1811,0.1822,0.1702,0.1702,0.1702,0,0,0.1392,0.1407,0.1418,0.1444,0.1468,0.1492,0.1498,0.1535,0.1566,0.1566,0.1622,0.1644,0.1662,0.1707,0.1731,0.1714,0.1805,0.1772,0.1777,0.1782,0.1816,0.1828,0.1838,0.1704,0.1704,0.1703,0,0,0.1403,0.1427,0.1444,0.1467,0.1507,0.1522,0.1541,0.1573,0.1601,0.1648,0.1663,0.171,0.1748,0.1769,0.1785,0.1845,0.1844,0.1859,0.1902,0.1937,0.1947,0.1955,0.198,0.1991,0.1862,0.1862,0.1863,0,0.1416,0.1433,0.1454,0.1478,0.1503,0.154,0.1566,0.1597,0.1642,0.167,0.1677,0.176,0.1778,0.1837,0.1863,0.1863,0.1879,0.1864,0.1946,0.1954,0.1963,0.1986,0.1997,0.1865,0.1865,0.1865,0.1865,0,0.1428,0.1459,0.1474,0.1516,0.1545,0.1576,0.1616,0.1659,0.1701,0.173,0.1806,0.1831,0.1882,0.1899,0.1903,0.1976,0.1968,0.195,0.192,0.1978,0.1999,0.2009,0.187,0.1869,0.1868,0.1867,0,0,0.1415,0.147,0.1482,0.1507,0.1569,0.1588,0.1652,0.1708,0.1758,0.1812,0.1873,0.1937,0.1964,0.1984,0.1999,0.2033,0.2107,0.2025,0.2025,0.2044,0.2187,0.204,0.2037,0.2106,0.2108,0.211,0.2179,0,0.1424,0.1465,0.1496,0.155,0.1573,0.1631,0.1682,0.1745,0.1802,0.1869,0.1923,0.1988,0.1992,0.2031,0.2069,0.2101,0.2137,0.209,0.2132,0.2134,0.1991,0.2045,0.2117,0.2187,0.2189,0.2191,0.2192,0,0.142,0.1451,0.1497,0.1563,0.1581,0.1629,0.172,0.1773,0.1874,0.1922,0.2002,0.2042,0.2126,0.2109,0.22,0.2174,0.2194,0.2206,0.2208,0.2058,0.2005,0.2117,0.221,0.2209,0.2208,0.2206,0.2205,0,0.1381,0.1449,0.1485,0.1509,0.1592,0.1641,0.17,0.1799,0.1851,0.1972,0.2027,0.2114,0.218,0.222,0.2267,0.2245,0.2347,0.2311,0.2196,0.2186,0.2273,0.2263,0.237,0.237,0.237,0.237,0.2369,0,0.1354,0.139,0.1478,0.1499,0.1558,0.1632,0.1711,0.1785,0.1894,0.1959,0.2061,0.2117,0.2215,0.228,0.2296,0.2282,0.2376,0.2213,0.2196,0.2295,0.2286,0.2281,0.227,0.2372,0.2372,0.2371,0.2371,0,0.1296,0.1354,0.1402,0.1502,0.1539,0.1588,0.1709,0.1759,0.1884,0.1976,0.2022,0.2152,0.2231,0.2302,0.2375,0.231,0.2312,0.2284,0.2402,0.2389,0.2119,0.211,0.2146,0.2141,0.2137,0.2134,0.2131,0,0.1263,0.1283,0.1391,0.1427,0.148,0.1565,0.1617,0.1743,0.1797,0.1973,0.2003,0.2134,0.2204,0.2192,0.2272,0.2288,0.2261,0.2243,0.2161,0.2118,0.2098,0.2095,0.2092,0.2125,0.2124,0.2123,0.2122,0,0.1201,0.1255,0.1297,0.1368,0.1432,0.148,0.1573,0.1596,0.1743,0.1873,0.1932,0.1972,0.2057,0.2098,0.2137,0.2141,0.2237,0.2201,0.2208,0.2131,0.2093,0.2077,0.2078,0.2108,0.211,0.2112,0.2112,0,0.1162,0.1173,0.1239,0.1289,0.1358,0.1375,0.1433,0.1495,0.1559,0.1753,0.1768,0.1909,0.2037,0.2024,0.2057,0.2052,0.2007,0.1921,0.1942,0.1958,0.1862,0.1785,0.1698,0,0,0,0,0,0.1111,0.1111,0.1151,0.1191,0.1253,0.1293,0.139,0.1452,0.1595,0.1588,0.1672,0.174,0.1786,0.1855,0.1811,0.1968,0.2014,0.1906,0.1926,0.2034,0.2049,0.1953,0,0,0,0,0,0,0.1074,0.1107,0.1114,0.1097,0.1109,0.1156,0.1212,0.1309,0.1311,0.147,0.1506,0.1625,0.1699,0.1798,0.1778,0.1798,0.177,0.1995,0.1989,0.2025,0.2039,0.2052,0.1958,0,0,0,0,0]},{"header":{"parameterUnit":"m.s-1","parameterCategory":2,"la1":30.2991,"la2":30.254,"lo1":-89.0895,"lo2":-89.0444,"dy":0.0017,"dx":0.0017,"nx":28,"ny":28,"refTime":"2023-11-16T09:00:00:Z","depth":"4","parameterNumber":3,"parameterNumberName":"V-component_of_CURRENTS"},"data":[0,0,0,0,0,0,0,0,0,0,0,0,0,0,0,0,0,0,0,0,0,0,0,0,0,0,0,0,0,0,0,0,0,0,0,0,0,0,0,0,0,0,0,0,0,0,0,0,0,0,0,0,0,0,0,0,0,0,0.0262,0.0262,0,0.0243,0.0243,0.0243,0.0227,0.0227,0.0227,0.0226,0.0194,0.0193,0.0193,0,0,0,0,0,0,0,0,0,0,0,0,0,0.0252,0.0252,0.0262,0.0262,0.0262,0.0243,0.0243,0.0243,0.0227,0.0227,0.0226,0.0226,0.0194,0.0194,0.0193,0,0,0,0,0,0,0,0,0,0,0,0,0,0.0247,0.0252,0.0262,0.0252,0.0251,0.0243,0.0243,0.0242,0.0227,0.0227,0.0226,0.0226,0.0195,0.0194,0.0193,0.019,0,0,0.0189,0.0189,0,0,0,0,0,0,0,0,0.0247,0.0247,0.0254,0.0253,0.0251,0.0237,0.0227,0.0224,0.0227,0.0236,0.0226,0.0226,0.0208,0.0206,0.0202,0.0189,0.0187,0.0189,0.0189,0.0188,0.0188,0,0,0,0,0,0,0,0.0247,0.0247,0.0255,0.0254,0.0252,0.0237,0.0236,0.0226,0.0223,0.0235,0.0234,0.0232,0.0207,0.0203,0.0201,0.0187,0.0189,0.0188,0.0188,0.0187,0.0177,0.0177,0,0,0,0,0,0,0.0252,0.0248,0.0255,0.0254,0.0249,0.0237,0.0236,0.0242,0.0223,0.022,0.0232,0.0231,0.0205,0.0203,0.02,0.0212,0.0188,0.0187,0.0186,0.0177,0.0177,0.0177,0,0,0,0,0,0,0.0252,0.0253,0.0256,0.025,0.0249,0.0238,0.0244,0.0242,0.0242,0.0221,0.0218,0.0236,0.0205,0.0202,0.0199,0.021,0.0187,0.0186,0.0176,0.0177,0.0177,0.0225,0,0,0,0,0,0,0.0252,0.0254,0.0262,0.0251,0.025,0.026,0.0244,0.0241,0.0241,0.024,0.0223,0.022,0.0205,0.0201,0.0198,0.0208,0.0185,0.0176,0.0176,0.0177,0.0223,0.0227,0.0231,0,0,0,0,0,0.0252,0.0266,0.0262,0.0263,0.0261,0.026,0.0259,0.0249,0.0242,0.0248,0.0235,0.022,0.0203,0.0201,0.0197,0.0207,0.0175,0.0176,0.0177,0.0221,0.0226,0.023,0,0,0,0,0,0,0.0264,0.0265,0.0261,0.0274,0.0271,0.0258,0.0262,0.0254,0.0249,0.0247,0.0227,0.0223,0.0224,0.0209,0.0206,0.0205,0.0186,0.0186,0.0221,0.0225,0.0229,0.0242,0.0184,0,0,0,0,0,0.0271,0.0283,0.0277,0.0287,0.0287,0.0276,0.0274,0.0268,0.026,0.0258,0.0246,0.0232,0.0224,0.022,0.0209,0.0211,0.0186,0.0213,0.0217,0.0221,0.0228,0.0198,0.02,0.018,0.018,0.018,0,0,0.0277,0.028,0.0287,0.0291,0.0286,0.0295,0.0275,0.0277,0.0287,0.0255,0.0265,0.0246,0.0227,0.0229,0.0228,0.0218,0.0213,0.0222,0.0225,0.0231,0.0199,0.0201,0.0203,0.0181,0.0181,0.0181,0,0,0.0297,0.03,0.0316,0.0318,0.0317,0.0312,0.0315,0.0307,0.0307,0.0312,0.029,0.028,0.027,0.0258,0.025,0.0269,0.0234,0.0263,0.0294,0.0265,0.0267,0.0267,0.0237,0.0235,0.0265,0.0266,0.0266,0,0.0304,0.0326,0.032,0.0334,0.0342,0.0323,0.0342,0.0339,0.0331,0.0335,0.0323,0.0305,0.0286,0.0286,0.0291,0.0278,0.0254,0.0279,0.027,0.0271,0.0271,0.0239,0.0236,0.0268,0.0268,0.0267,0.0267,0,0.0334,0.0352,0.0362,0.0378,0.0385,0.0397,0.0393,0.0398,0.0394,0.0388,0.0388,0.036,0.0349,0.0339,0.0322,0.0316,0.0295,0.0278,0.026,0.0276,0.0241,0.0237,0.0271,0.0271,0.027,0.0269,0,0,0.035,0.0378,0.0384,0.0403,0.0411,0.0423,0.0439,0.0451,0.0467,0.0449,0.0463,0.044,0.0417,0.0407,0.0378,0.0352,0.0328,0.032,0.0317,0.0292,0.0261,0.024,0.0233,0.0307,0.0307,0.0307,0.0235,0,0.0377,0.0419,0.0426,0.0468,0.049,0.0487,0.0508,0.0514,0.0512,0.0518,0.0484,0.0485,0.0446,0.0441,0.0409,0.0351,0.0321,0.0349,0.0247,0.0244,0.0225,0.0228,0.0306,0.0232,0.0231,0.0231,0.023,0,0.0404,0.0433,0.0482,0.0524,0.0534,0.0558,0.0591,0.0609,0.0606,0.0602,0.0585,0.0554,0.052,0.0483,0.0391,0.041,0.0343,0.0292,0.0287,0.025,0.0216,0.0212,0.0222,0.0223,0.0224,0.0224,0.0225,0,0.0426,0.0473,0.0519,0.0533,0.0574,0.0601,0.0624,0.0636,0.0662,0.0656,0.0665,0.0611,0.0592,0.0503,0.0396,0.0393,0.0287,0.0266,0.0182,0.0179,0.0199,0.0198,0.0199,0.0199,0.0199,0.0199,0.0199,0,0.0451,0.049,0.0537,0.0564,0.0626,0.064,0.07,0.071,0.073,0.0764,0.0712,0.0712,0.0596,0.052,0.0414,0.0287,0.0297,0.0189,0.0161,0.022,0.0223,0.0195,0.0196,0.0197,0.0197,0.0198,0.0198,0,0.0467,0.0497,0.0555,0.0613,0.064,0.0686,0.0758,0.0794,0.0806,0.0845,0.0847,0.0789,0.0689,0.0561,0.0414,0.0317,0.0194,0.0144,0.0219,0.0196,0.01,0.0104,0.0045,0.0044,0.0043,0.0042,0.0041,0,0.0478,0.051,0.0595,0.0639,0.0672,0.0743,0.0794,0.0832,0.0871,0.089,0.0906,0.083,0.0771,0.0549,0.0407,0.0201,0.0166,0.0097,0.0095,0.0106,0.0085,0.009,0.0095,0.0039,0.0039,0.0039,0.0039,0,0.0499,0.0532,0.0583,0.0673,0.074,0.0818,0.0889,0.0921,0.0964,0.0975,0.0949,0.0839,0.0723,0.0548,0.0387,0.0238,0.014,0.0084,0.0086,0.0084,0.0098,0.0079,0.0086,0.0035,0.0035,0.0036,0.0036,0,0.0516,0.0553,0.0622,0.0701,0.0787,0.0866,0.0905,0.0948,0.0986,0.0997,0.0985,0.0862,0.0794,0.0567,0.0421,0.0271,0.0227,0.0168,0.0164,0.0166,0.0218,0.0256,0.0219,0,0,0,0,0,0.0528,0.0572,0.0645,0.0733,0.0817,0.0872,0.0958,0.0988,0.1026,0.1011,0.1,0.089,0.0673,0.0582,0.0428,0.039,0.0197,0.0202,0.0126,0.0013,0.0018,0.0055,0,0,0,0,0,0,0.0537,0.0605,0.0642,0.0745,0.0806,0.0905,0.0962,0.0991,0.0981,0.0991,0.0879,0.0834,0.0625,0.0759,0.0418,0.0375,0.0301,0.0107,0.0103,0.0011,0.0015,0.0018,0.0058,0,0,0,0,0]}]]